TimeCET,TemperatureF,Dew PointF,Humidity,Sea Level PressureIn,VisibilityMPH,Wind Direction,Wind SpeedMPH,Gust SpeedMPH,PrecipitationIn,Events,Conditions,WindDirDegrees,DateUTC
12:25 AM,48.2,48.2,100,29.80,1.4,Variable,2.3,-,N/A,,Drizzle,0,2012-11-17 23:25:00
12:55 AM,48.2,48.2,100,29.80,1.4,Variable,1.2,-,N/A,,Overcast,0,2012-11-17 23:55:00
1:00 AM,47,47,100,29.81,1,NW,2.2,,,Rain,Drizzle,320,2012-11-18 00:00:00
1:25 AM,46.4,46.4,100,29.80,1.3,Variable,1.2,-,N/A,,Overcast,0,2012-11-18 00:25:00
1:55 AM,46.4,46.4,100,29.80,0.7,West,1.2,-,N/A,Rain,Light Rain,280,2012-11-18 00:55:00
2:25 AM,46.4,46.4,100,29.80,0.7,West,2.3,-,N/A,,Overcast,270,2012-11-18 01:25:00
2:55 AM,46.4,46.4,100,29.80,-9999.0,SW,2.3,-,N/A,Fog,Fog,230,2012-11-18 01:55:00
3:25 AM,48.2,48.2,100,29.80,1.4,Variable,2.3,-,N/A,,Heavy Drizzle,0,2012-11-18 02:25:00
3:55 AM,46.4,46.4,100,29.83,1.1,NW,3.5,-,N/A,,Heavy Drizzle,310,2012-11-18 02:55:00
4:00 AM,47,47,100,29.83,2,NNW,6.7,,,Rain,Light Rain Showers,330,2012-11-18 03:00:00
4:25 AM,46.4,46.4,100,29.83,-9999.0,NNW,4.6,-,N/A,Rain,Light Rain,330,2012-11-18 03:25:00
4:55 AM,46.4,46.4,100,29.83,3.7,NNW,4.6,-,N/A,Rain,Light Rain,330,2012-11-18 03:55:00
5:25 AM,46.4,46.4,100,29.83,6.2,NNW,5.8,-,N/A,Rain,Light Rain,330,2012-11-18 04:25:00
5:55 AM,46.4,46.4,100,29.83,6.2,NNW,3.5,-,N/A,Rain,Light Rain,330,2012-11-18 04:55:00
6:25 AM,46.4,46.4,100,29.83,6.2,Variable,1.2,-,N/A,,Light Drizzle,0,2012-11-18 05:25:00
6:55 AM,44.6,44.6,100,29.86,3.7,SW,1.2,-,N/A,Rain,Light Rain,230,2012-11-18 05:55:00
7:00 AM,44,44,100,29.86,4,Calm,Calm,,,Rain,Heavy Rain,,2012-11-18 06:00:00
7:25 AM,44.6,44.6,100,29.86,1.7,Calm,Calm,-,N/A,,Drizzle,0,2012-11-18 06:25:00
7:55 AM,44.6,44.6,100,29.86,1.9,WSW,1.2,-,N/A,,Overcast,250,2012-11-18 06:55:00
8:25 AM,44.6,44.6,100,29.86,3.1,WSW,1.2,-,N/A,,Scattered Clouds,250,2012-11-18 07:25:00
8:55 AM,44.6,44.6,100,29.89,4.3,West,3.5,-,N/A,Rain,Light Rain,260,2012-11-18 07:55:00
9:25 AM,46.4,46.4,100,29.89,5.0,Variable,2.3,-,N/A,Rain,Light Rain,0,2012-11-18 08:25:00
9:55 AM,46.4,46.4,100,29.89,6.2,Variable,2.3,-,N/A,,Overcast,0,2012-11-18 08:55:00
10:00 AM,46,46,98,29.91,7,NW,2.2,,,Rain,Rain,310,2012-11-18 09:00:00
10:25 AM,46.4,46.4,100,29.92,6.2,Variable,2.3,-,N/A,,Overcast,0,2012-11-18 09:25:00
10:55 AM,46.4,46.4,100,29.92,6.2,Variable,2.3,-,N/A,,Scattered Clouds,0,2012-11-18 09:55:00
11:25 AM,46.4,46.4,100,29.92,6.2,Variable,1.2,-,N/A,,Unknown,0,2012-11-18 10:25:00
11:55 AM,48.2,46.4,93,29.92,6.2,Variable,1.2,-,N/A,,Partly Cloudy,0,2012-11-18 10:55:00
12:25 PM,50.0,44.6,82,29.95,6.2,Variable,2.3,-,N/A,,Unknown,0,2012-11-18 11:25:00
12:55 PM,50.0,42.8,76,29.95,6.2,NNW,3.5,-,N/A,,Unknown,330,2012-11-18 11:55:00
1:00 PM,51,41,60,29.95,22,North,6.7,,,,Partly Cloudy,350,2012-11-18 12:00:00
1:25 PM,48.2,41.0,76,29.95,6.2,NNW,4.6,-,N/A,,Partly Cloudy,340,2012-11-18 12:25:00
1:55 PM,50.0,41.0,71,29.95,6.2,North,3.5,-,N/A,,Unknown,360,2012-11-18 12:55:00
2:25 PM,50.0,41.0,71,29.95,6.2,North,4.6,-,N/A,,Unknown,350,2012-11-18 13:25:00
2:55 PM,50.0,41.0,71,29.95,6.2,North,4.6,-,N/A,,Mostly Cloudy,360,2012-11-18 13:55:00
3:25 PM,50.0,41.0,71,29.95,6.2,NW,3.5,-,N/A,,Scattered Clouds,310,2012-11-18 14:25:00
3:55 PM,48.2,41.0,76,29.98,6.2,NW,3.5,-,N/A,,Overcast,310,2012-11-18 14:55:00
4:00 PM,47,40,69,29.99,25,NW,4.5,,,,Scattered Clouds,320,2012-11-18 15:00:00
4:25 PM,44.6,39.2,81,29.98,6.2,Variable,2.3,-,N/A,,Unknown,0,2012-11-18 15:25:00
4:55 PM,42.8,39.2,87,29.98,6.2,SSW,1.2,-,N/A,,Unknown,210,2012-11-18 15:55:00
5:25 PM,41.0,37.4,87,29.98,6.2,Variable,1.2,-,N/A,,Unknown,0,2012-11-18 16:25:00
5:55 PM,39.2,37.4,93,30.01,6.2,WNW,1.2,-,N/A,,Unknown,290,2012-11-18 16:55:00
6:25 PM,37.4,37.4,100,30.01,6.2,WSW,1.2,-,N/A,,Unknown,250,2012-11-18 17:25:00
6:55 PM,37.4,37.4,100,30.01,6.2,Variable,1.2,-,N/A,,Unknown,0,2012-11-18 17:55:00
7:00 PM,36,36,100,30.03,16,WSW,2.2,,,,Partly Cloudy,250,2012-11-18 18:00:00
7:25 PM,37.4,37.4,100,30.01,6.2,Variable,1.2,-,N/A,,Unknown,0,2012-11-18 18:25:00
7:55 PM,35.6,35.6,100,30.04,6.2,ESE,2.3,-,N/A,,Unknown,120,2012-11-18 18:55:00
8:25 PM,35.6,35.6,100,30.04,4.3,Variable,2.3,-,N/A,,Unknown,0,2012-11-18 19:25:00
8:55 PM,33.8,33.8,100,30.04,0.5,Variable,1.2,-,N/A,Fog,Fog,0,2012-11-18 19:55:00
9:25 PM,33.8,33.8,100,30.04,0.8,SSE,1.2,-,N/A,,Overcast,160,2012-11-18 20:25:00
9:55 PM,37.4,37.4,100,30.04,3.7,Variable,1.2,-,N/A,,Partly Cloudy,0,2012-11-18 20:55:00
10:00 PM,36,35,97,30.05,0,SE,2.2,,,Fog,Fog,140,2012-11-18 21:00:00
10:25 PM,33.8,33.8,100,30.04,0.6,Variable,1.2,-,N/A,Fog,Fog,0,2012-11-18 21:25:00
10:55 PM,32.0,32.0,100,30.04,0.2,SSE,1.2,-,N/A,Fog,Fog,160,2012-11-18 21:55:00
11:25 PM,33.8,33.8,100,30.04,-9999.0,East,1.2,-,N/A,Fog,Fog,100,2012-11-18 22:25:00
11:55 PM,32.0,32.0,100,30.04,0.5,Variable,1.2,-,N/A,Fog,Light Freezing Fog,0,2012-11-18 22:55:00